Year,Month,Day,Hour,Minute,Value (Times are PST for windspeed in km/hr)
2014,10,20,00,00,0.20
2014,10,20,00,01,2.90
2014,10,20,00,02,3.00
2014,10,20,00,03,3.00
2014,10,20,00,04,2.50
2014,10,20,00,05,1.00
2014,10,20,00,06,0.00
2014,10,20,00,07,0.20
2014,10,20,00,08,0.00
2014,10,20,00,09,0.00
2014,10,20,00,10,0.00
2014,10,20,00,11,0.20
2014,10,20,00,12,0.00
2014,10,20,00,13,0.00
2014,10,20,00,14,0.00
2014,10,20,00,15,0.00
2014,10,20,00,16,0.00
2014,10,20,00,17,0.00
2014,10,20,00,18,0.00
2014,10,20,00,19,0.20
2014,10,20,00,20,3.00
2014,10,20,00,21,2.30
2014,10,20,00,22,2.10
2014,10,20,00,23,1.50
2014,10,20,00,24,0.00
2014,10,20,00,25,0.00
2014,10,20,00,26,0.10
2014,10,20,00,27,0.00
2014,10,20,00,28,0.00
2014,10,20,00,29,0.00
2014,10,20,00,30,0.00
2014,10,20,00,31,0.40
2014,10,20,00,32,0.00
2014,10,20,00,33,0.00
2014,10,20,00,34,0.00
2014,10,20,00,35,0.00
2014,10,20,00,36,0.00
2014,10,20,00,37,0.00
2014,10,20,00,38,0.00
2014,10,20,00,39,0.00
2014,10,20,00,40,0.00
2014,10,20,00,41,0.00
2014,10,20,00,42,0.00
2014,10,20,00,43,0.00
2014,10,20,00,44,0.00
2014,10,20,00,45,0.00
2014,10,20,00,46,0.00
2014,10,20,00,47,0.00
2014,10,20,00,48,0.00
2014,10,20,00,49,0.00
2014,10,20,00,50,0.00
2014,10,20,00,51,0.00
2014,10,20,00,52,0.00
2014,10,20,00,53,0.00
2014,10,20,00,54,0.00
2014,10,20,00,55,0.00
2014,10,20,00,56,0.00
2014,10,20,00,57,0.00
2014,10,20,00,58,0.00
2014,10,20,00,59,0.00
2014,10,20,01,00,0.00
2014,10,20,01,01,0.00
2014,10,20,01,02,0.60
2014,10,20,01,03,2.00
2014,10,20,01,04,2.30
2014,10,20,01,05,3.30
2014,10,20,01,06,5.30
2014,10,20,01,07,2.30
2014,10,20,01,08,2.40
2014,10,20,01,09,2.80
2014,10,20,01,10,0.70
2014,10,20,01,11,0.00
2014,10,20,01,12,2.40
2014,10,20,01,13,0.70
2014,10,20,01,14,0.10
2014,10,20,01,15,0.10
2014,10,20,01,16,3.50
2014,10,20,01,17,4.20
2014,10,20,01,18,3.10
2014,10,20,01,19,0.00
2014,10,20,01,20,0.00
2014,10,20,01,21,0.00
2014,10,20,01,22,0.00
2014,10,20,01,23,0.00
2014,10,20,01,24,0.00
2014,10,20,01,25,0.00
2014,10,20,01,26,0.00
2014,10,20,01,27,0.00
2014,10,20,01,28,0.00
2014,10,20,01,29,0.00
2014,10,20,01,30,0.00
2014,10,20,01,31,0.00
2014,10,20,01,32,0.00
2014,10,20,01,33,0.00
2014,10,20,01,34,0.00
2014,10,20,01,35,0.00
2014,10,20,01,36,0.00
2014,10,20,01,37,0.00
2014,10,20,01,38,0.00
2014,10,20,01,39,0.00
2014,10,20,01,40,0.00
2014,10,20,01,41,0.00
2014,10,20,01,42,0.00
2014,10,20,01,43,0.00
2014,10,20,01,44,0.00
2014,10,20,01,45,0.00
2014,10,20,01,46,0.10
2014,10,20,01,47,0.00
2014,10,20,01,48,0.00
2014,10,20,01,49,0.00
2014,10,20,01,50,0.00
2014,10,20,01,51,0.00
2014,10,20,01,52,0.00
2014,10,20,01,53,0.10
2014,10,20,01,54,0.00
2014,10,20,01,55,0.00
2014,10,20,01,56,0.00
2014,10,20,01,57,0.00
2014,10,20,01,58,0.00
2014,10,20,01,59,0.00
2014,10,20,02,00,0.00
2014,10,20,02,01,0.00
2014,10,20,02,02,0.00
2014,10,20,02,03,0.00
2014,10,20,02,04,0.00
2014,10,20,02,05,0.00
2014,10,20,02,06,0.00
2014,10,20,02,07,0.00
2014,10,20,02,08,0.00
2014,10,20,02,09,0.00
2014,10,20,02,10,0.00
2014,10,20,02,11,0.00
2014,10,20,02,12,1.10
2014,10,20,02,13,2.20
2014,10,20,02,14,2.30
2014,10,20,02,15,2.60
2014,10,20,02,16,2.80
2014,10,20,02,17,1.10
2014,10,20,02,18,0.00
2014,10,20,02,19,0.10
2014,10,20,02,20,0.00
2014,10,20,02,21,0.00
2014,10,20,02,22,0.00
2014,10,20,02,23,0.00
2014,10,20,02,24,0.10
2014,10,20,02,25,2.60
2014,10,20,02,26,3.10
2014,10,20,02,27,2.30
2014,10,20,02,28,0.20
2014,10,20,02,29,0.00
2014,10,20,02,30,0.00
2014,10,20,02,31,0.00
2014,10,20,02,32,0.00
2014,10,20,02,33,0.00
2014,10,20,02,34,0.00
2014,10,20,02,35,0.00
2014,10,20,02,36,0.00
2014,10,20,02,37,0.00
2014,10,20,02,38,0.00
2014,10,20,02,39,0.00
2014,10,20,02,40,1.40
2014,10,20,02,41,1.90
2014,10,20,02,42,2.60
2014,10,20,02,43,1.90
2014,10,20,02,44,1.60
2014,10,20,02,45,1.00
2014,10,20,02,46,0.00
2014,10,20,02,47,0.00
2014,10,20,02,48,0.40
2014,10,20,02,49,0.90
2014,10,20,02,50,0.00
2014,10,20,02,51,0.00
2014,10,20,02,52,0.00
2014,10,20,02,53,0.00
2014,10,20,02,54,0.00
2014,10,20,02,55,0.80
2014,10,20,02,56,2.20
2014,10,20,02,57,0.40
2014,10,20,02,58,0.00
2014,10,20,02,59,0.00
2014,10,20,03,00,0.00
2014,10,20,03,01,0.00
2014,10,20,03,02,0.10
2014,10,20,03,03,0.00
2014,10,20,03,04,0.00
2014,10,20,03,05,0.00
2014,10,20,03,06,0.00
2014,10,20,03,07,0.00
2014,10,20,03,08,0.00
2014,10,20,03,09,0.10
2014,10,20,03,10,0.00
2014,10,20,03,11,0.00
2014,10,20,03,12,0.00
2014,10,20,03,13,0.00
2014,10,20,03,14,0.00
2014,10,20,03,15,0.00
2014,10,20,03,16,0.00
2014,10,20,03,17,0.00
2014,10,20,03,18,0.00
2014,10,20,03,19,0.00
2014,10,20,03,20,0.00
2014,10,20,03,21,0.00
2014,10,20,03,22,0.00
2014,10,20,03,23,0.00
2014,10,20,03,24,0.00
2014,10,20,03,25,0.00
2014,10,20,03,26,0.00
2014,10,20,03,27,0.00
2014,10,20,03,28,1.30
2014,10,20,03,29,2.10
2014,10,20,03,30,0.50
2014,10,20,03,31,2.30
2014,10,20,03,32,0.40
2014,10,20,03,33,0.00
2014,10,20,03,34,0.10
2014,10,20,03,35,2.70
2014,10,20,03,36,0.30
2014,10,20,03,37,0.00
2014,10,20,03,38,0.00
2014,10,20,03,39,0.00
2014,10,20,03,40,0.00
2014,10,20,03,41,0.00
2014,10,20,03,42,0.00
2014,10,20,03,43,0.00
2014,10,20,03,44,0.00
2014,10,20,03,45,0.00
2014,10,20,03,46,0.00
2014,10,20,03,47,0.00
2014,10,20,03,48,0.00
2014,10,20,03,49,0.10
2014,10,20,03,50,0.00
2014,10,20,03,51,0.00
2014,10,20,03,52,0.90
2014,10,20,03,53,1.50
2014,10,20,03,54,1.80
2014,10,20,03,55,2.60
2014,10,20,03,56,2.50
2014,10,20,03,57,0.60
2014,10,20,03,58,0.10
2014,10,20,03,59,0.00
2014,10,20,04,00,0.10
2014,10,20,04,01,0.00
2014,10,20,04,02,0.00
2014,10,20,04,03,0.00
2014,10,20,04,04,0.00
2014,10,20,04,05,0.00
2014,10,20,04,06,0.00
2014,10,20,04,07,0.00
2014,10,20,04,08,0.00
2014,10,20,04,09,0.00
2014,10,20,04,10,0.00
2014,10,20,04,11,0.00
2014,10,20,04,12,0.00
2014,10,20,04,13,0.00
2014,10,20,04,14,0.00
2014,10,20,04,15,0.00
2014,10,20,04,16,0.00
2014,10,20,04,17,0.10
2014,10,20,04,18,0.00
2014,10,20,04,19,0.00
2014,10,20,04,20,0.10
2014,10,20,04,21,0.10
2014,10,20,04,22,0.00
2014,10,20,04,23,0.00
2014,10,20,04,24,0.00
2014,10,20,04,25,0.00
2014,10,20,04,26,0.00
2014,10,20,04,27,0.00
2014,10,20,04,28,0.00
2014,10,20,04,29,0.00
2014,10,20,04,30,0.00
2014,10,20,04,31,0.50
2014,10,20,04,32,2.60
2014,10,20,04,33,2.30
2014,10,20,04,34,2.80
2014,10,20,04,35,2.30
2014,10,20,04,36,2.30
2014,10,20,04,37,3.60
2014,10,20,04,38,2.50
2014,10,20,04,39,3.00
2014,10,20,04,40,0.20
2014,10,20,04,41,0.10
2014,10,20,04,42,0.00
2014,10,20,04,43,0.10
2014,10,20,04,44,0.00
2014,10,20,04,45,0.10
2014,10,20,04,46,0.00
2014,10,20,04,47,0.10
2014,10,20,04,48,2.50
2014,10,20,04,49,2.10
2014,10,20,04,50,0.10
2014,10,20,04,51,3.10
2014,10,20,04,52,2.70
2014,10,20,04,53,0.70
2014,10,20,04,54,0.00
2014,10,20,04,55,0.00
2014,10,20,04,56,0.00
2014,10,20,04,57,0.10
2014,10,20,04,58,0.00
2014,10,20,04,59,0.10
2014,10,20,05,00,0.70
2014,10,20,05,01,0.60
2014,10,20,05,02,0.20
2014,10,20,05,03,0.60
2014,10,20,05,04,0.50
2014,10,20,05,05,0.00
2014,10,20,05,06,0.00
2014,10,20,05,07,0.00
2014,10,20,05,08,0.00
2014,10,20,05,09,0.00
2014,10,20,05,10,0.00
2014,10,20,05,11,0.00
2014,10,20,05,12,0.00
2014,10,20,05,13,0.00
2014,10,20,05,14,0.00
2014,10,20,05,15,0.00
2014,10,20,05,16,0.00
2014,10,20,05,17,0.00
2014,10,20,05,18,0.00
2014,10,20,05,19,0.00
2014,10,20,05,20,0.00
2014,10,20,05,21,0.00
2014,10,20,05,22,0.00
2014,10,20,05,23,0.00
2014,10,20,05,24,0.00
2014,10,20,05,25,0.00
2014,10,20,05,26,0.00
2014,10,20,05,27,0.00
2014,10,20,05,28,0.00
2014,10,20,05,29,0.00
2014,10,20,05,30,0.00
2014,10,20,05,31,0.00
2014,10,20,05,32,0.00
2014,10,20,05,33,0.00
2014,10,20,05,34,0.00
2014,10,20,05,35,0.00
2014,10,20,05,36,0.00
2014,10,20,05,37,0.00
2014,10,20,05,38,0.00
2014,10,20,05,39,0.00
2014,10,20,05,40,0.00
2014,10,20,05,41,0.00
2014,10,20,05,42,0.00
2014,10,20,05,43,0.00
2014,10,20,05,44,0.00
2014,10,20,05,45,0.00
2014,10,20,05,46,0.00
2014,10,20,05,47,0.00
2014,10,20,05,48,0.00
2014,10,20,05,49,0.00
2014,10,20,05,50,1.70
2014,10,20,05,51,1.80
2014,10,20,05,52,0.00
2014,10,20,05,53,0.00
2014,10,20,05,54,0.00
2014,10,20,05,55,0.00
2014,10,20,05,56,0.00
2014,10,20,05,57,0.00
2014,10,20,05,58,0.00
2014,10,20,05,59,0.00
2014,10,20,06,00,0.00
2014,10,20,06,01,0.00
2014,10,20,06,02,0.00
2014,10,20,06,03,0.00
2014,10,20,06,04,0.00
2014,10,20,06,05,0.00
2014,10,20,06,06,0.00
2014,10,20,06,07,0.00
2014,10,20,06,08,0.10
2014,10,20,06,09,0.00
2014,10,20,06,10,0.00
2014,10,20,06,11,0.10
2014,10,20,06,12,0.00
2014,10,20,06,13,0.10
2014,10,20,06,14,0.00
2014,10,20,06,15,0.00
2014,10,20,06,16,0.00
2014,10,20,06,17,0.00
2014,10,20,06,18,0.00
2014,10,20,06,19,0.00
2014,10,20,06,20,0.00
2014,10,20,06,21,0.00
2014,10,20,06,22,0.00
2014,10,20,06,23,0.00
2014,10,20,06,24,0.00
2014,10,20,06,25,0.00
2014,10,20,06,26,0.00
2014,10,20,06,27,0.00
2014,10,20,06,28,1.40
2014,10,20,06,29,2.70
2014,10,20,06,30,2.70
2014,10,20,06,31,2.50
2014,10,20,06,32,1.70
2014,10,20,06,33,2.50
2014,10,20,06,34,2.10
2014,10,20,06,35,0.00
2014,10,20,06,36,0.00
2014,10,20,06,37,0.00
2014,10,20,06,38,0.00
2014,10,20,06,39,0.00
2014,10,20,06,40,0.00
2014,10,20,06,41,0.00
2014,10,20,06,42,0.00
2014,10,20,06,43,0.00
2014,10,20,06,44,1.50
2014,10,20,06,45,2.60
2014,10,20,06,46,1.40
2014,10,20,06,47,0.00
2014,10,20,06,48,0.00
2014,10,20,06,49,0.00
2014,10,20,06,50,0.00
2014,10,20,06,51,0.00
2014,10,20,06,52,0.00
2014,10,20,06,53,0.00
2014,10,20,06,54,0.00
2014,10,20,06,55,0.00
2014,10,20,06,56,0.00
2014,10,20,06,57,0.00
2014,10,20,06,58,0.00
2014,10,20,06,59,0.00
2014,10,20,07,00,0.00
2014,10,20,07,01,0.00
2014,10,20,07,02,0.00
2014,10,20,07,03,0.00
2014,10,20,07,04,0.00
2014,10,20,07,05,0.00
2014,10,20,07,06,0.00
2014,10,20,07,07,0.00
2014,10,20,07,08,0.00
2014,10,20,07,09,0.00
2014,10,20,07,10,0.00
2014,10,20,07,11,0.00
2014,10,20,07,12,0.00
2014,10,20,07,13,0.10
2014,10,20,07,14,0.00
2014,10,20,07,15,0.00
2014,10,20,07,16,0.00
2014,10,20,07,17,0.00
2014,10,20,07,18,0.00
2014,10,20,07,19,1.30
2014,10,20,07,20,2.60
2014,10,20,07,21,3.10
2014,10,20,07,22,2.50
2014,10,20,07,23,1.90
2014,10,20,07,24,1.80
2014,10,20,07,25,0.00
2014,10,20,07,26,0.00
2014,10,20,07,27,0.00
2014,10,20,07,28,0.00
2014,10,20,07,29,0.00
2014,10,20,07,30,0.00
2014,10,20,07,31,0.00
2014,10,20,07,32,0.00
2014,10,20,07,33,0.00
2014,10,20,07,34,0.00
2014,10,20,07,35,0.00
2014,10,20,07,36,0.00
2014,10,20,07,37,0.00
2014,10,20,07,38,0.00
2014,10,20,07,39,0.00
2014,10,20,07,40,0.00
2014,10,20,07,41,0.00
2014,10,20,07,42,0.00
2014,10,20,07,43,0.00
2014,10,20,07,44,0.00
2014,10,20,07,45,0.00
2014,10,20,07,46,0.00
2014,10,20,07,47,0.00
2014,10,20,07,48,0.00
2014,10,20,07,49,0.00
2014,10,20,07,50,0.00
2014,10,20,07,51,0.00
2014,10,20,07,52,0.00
2014,10,20,07,53,0.00
2014,10,20,07,54,0.00
2014,10,20,07,55,0.00
2014,10,20,07,56,0.00
2014,10,20,07,57,0.00
2014,10,20,07,58,0.00
2014,10,20,07,59,0.00
2014,10,20,08,00,0.00
2014,10,20,08,01,0.00
2014,10,20,08,02,0.00
2014,10,20,08,03,0.00
2014,10,20,08,04,0.00
2014,10,20,08,05,0.00
2014,10,20,08,06,0.00
2014,10,20,08,07,0.00
2014,10,20,08,08,0.00
2014,10,20,08,09,0.00
2014,10,20,08,10,0.00
2014,10,20,08,11,0.00
2014,10,20,08,12,0.00
2014,10,20,08,13,0.00
2014,10,20,08,14,0.00
2014,10,20,08,15,0.00
2014,10,20,08,16,0.00
2014,10,20,08,17,0.00
2014,10,20,08,18,0.00
2014,10,20,08,19,0.00
2014,10,20,08,20,0.00
2014,10,20,08,21,0.00
2014,10,20,08,22,0.00
2014,10,20,08,23,0.00
2014,10,20,08,24,0.00
2014,10,20,08,25,0.00
2014,10,20,08,26,0.00
2014,10,20,08,27,0.00
2014,10,20,08,28,0.00
2014,10,20,08,29,0.00
2014,10,20,08,30,0.00
2014,10,20,08,31,0.00
2014,10,20,08,32,0.00
2014,10,20,08,33,0.00
2014,10,20,08,34,0.00
2014,10,20,08,35,0.00
2014,10,20,08,36,0.00
2014,10,20,08,37,0.00
2014,10,20,08,38,0.00
2014,10,20,08,39,0.00
2014,10,20,08,40,0.00
2014,10,20,08,41,0.00
2014,10,20,08,42,0.00
2014,10,20,08,43,0.00
2014,10,20,08,44,0.00
2014,10,20,08,45,1.20
2014,10,20,08,46,0.10
2014,10,20,08,47,0.00
2014,10,20,08,48,0.00
2014,10,20,08,49,0.80
2014,10,20,08,50,1.30
2014,10,20,08,51,0.00
2014,10,20,08,52,0.00
2014,10,20,08,53,2.30
2014,10,20,08,54,0.10
2014,10,20,08,55,0.00
2014,10,20,08,56,0.10
2014,10,20,08,57,2.80
2014,10,20,08,58,0.50
2014,10,20,08,59,0.00
2014,10,20,09,00,0.00
2014,10,20,09,01,0.00
2014,10,20,09,02,0.00
2014,10,20,09,03,0.00
2014,10,20,09,04,0.00
2014,10,20,09,05,0.00
2014,10,20,09,06,0.00
2014,10,20,09,07,0.00
2014,10,20,09,08,0.00
2014,10,20,09,09,0.00
2014,10,20,09,10,0.00
2014,10,20,09,11,0.00
2014,10,20,09,12,0.00
2014,10,20,09,13,0.10
2014,10,20,09,14,1.80
2014,10,20,09,15,0.10
2014,10,20,09,16,0.00
2014,10,20,09,17,0.00
2014,10,20,09,18,0.00
2014,10,20,09,19,0.00
2014,10,20,09,20,0.00
2014,10,20,09,21,0.00
2014,10,20,09,22,0.00
2014,10,20,09,23,0.00
2014,10,20,09,24,0.00
2014,10,20,09,25,0.00
2014,10,20,09,26,0.80
2014,10,20,09,27,4.10
2014,10,20,09,28,3.70
2014,10,20,09,29,1.50
2014,10,20,09,30,0.00
2014,10,20,09,31,0.10
2014,10,20,09,32,1.80
2014,10,20,09,33,2.20
2014,10,20,09,34,0.80
2014,10,20,09,35,3.20
2014,10,20,09,36,3.10
2014,10,20,09,37,0.50
2014,10,20,09,38,0.00
2014,10,20,09,39,0.10
2014,10,20,09,40,0.00
2014,10,20,09,41,0.10
2014,10,20,09,42,0.00
2014,10,20,09,43,0.00
2014,10,20,09,44,0.80
2014,10,20,09,45,2.30
2014,10,20,09,46,1.10
2014,10,20,09,47,2.10
2014,10,20,09,48,1.90
2014,10,20,09,49,1.00
2014,10,20,09,50,0.00
2014,10,20,09,51,0.00
2014,10,20,09,52,0.00
2014,10,20,09,53,0.00
2014,10,20,09,54,0.00
2014,10,20,09,55,0.00
2014,10,20,09,56,0.80
2014,10,20,09,57,2.70
2014,10,20,09,58,1.80
2014,10,20,09,59,0.00
2014,10,20,10,00,1.00
2014,10,20,10,01,0.10
2014,10,20,10,02,0.00
2014,10,20,10,03,0.00
2014,10,20,10,04,0.00
2014,10,20,10,05,0.20
2014,10,20,10,06,0.00
2014,10,20,10,07,1.10
2014,10,20,10,08,4.80
2014,10,20,10,09,5.30
2014,10,20,10,10,2.60
2014,10,20,10,11,1.70
2014,10,20,10,12,3.90
2014,10,20,10,13,4.30
2014,10,20,10,14,4.80
2014,10,20,10,15,3.50
2014,10,20,10,16,0.00
2014,10,20,10,17,0.00
2014,10,20,10,18,0.00
2014,10,20,10,19,0.00
2014,10,20,10,20,2.80
2014,10,20,10,21,3.90
2014,10,20,10,22,4.60
2014,10,20,10,23,3.20
2014,10,20,10,24,2.90
2014,10,20,10,25,0.10
2014,10,20,10,26,0.00
2014,10,20,10,27,0.00
2014,10,20,10,28,0.00
2014,10,20,10,29,0.00
2014,10,20,10,30,0.00
2014,10,20,10,31,0.00
2014,10,20,10,32,0.00
2014,10,20,10,33,2.10
2014,10,20,10,34,0.90
2014,10,20,10,35,3.10
2014,10,20,10,36,3.00
2014,10,20,10,37,3.20
2014,10,20,10,38,0.50
2014,10,20,10,39,0.00
2014,10,20,10,40,0.00
2014,10,20,10,41,0.00
2014,10,20,10,42,0.00
2014,10,20,10,43,0.00
2014,10,20,10,44,0.00
2014,10,20,10,45,0.00
2014,10,20,10,46,0.00
2014,10,20,10,47,0.00
2014,10,20,10,48,2.90
2014,10,20,10,49,1.90
2014,10,20,10,50,1.70
2014,10,20,10,51,2.20
2014,10,20,10,52,1.60
2014,10,20,10,53,1.30
2014,10,20,10,54,2.70
2014,10,20,10,55,4.40
2014,10,20,10,56,2.90
2014,10,20,10,57,2.80
2014,10,20,10,58,0.70
2014,10,20,10,59,0.10
2014,10,20,11,00,4.80
2014,10,20,11,01,6.00
2014,10,20,11,02,7.00
2014,10,20,11,03,4.70
2014,10,20,11,04,6.10
2014,10,20,11,05,4.70
2014,10,20,11,06,2.30
2014,10,20,11,07,4.40
2014,10,20,11,08,8.10
2014,10,20,11,09,5.90
2014,10,20,11,10,6.80
2014,10,20,11,11,7.20
2014,10,20,11,12,7.50
2014,10,20,11,13,5.70
2014,10,20,11,14,6.40
2014,10,20,11,15,6.30
2014,10,20,11,16,4.10
2014,10,20,11,17,3.60
2014,10,20,11,18,6.40
2014,10,20,11,19,3.50
2014,10,20,11,20,6.00
2014,10,20,11,21,8.40
2014,10,20,11,22,6.60
2014,10,20,11,23,5.30
2014,10,20,11,24,3.90
2014,10,20,11,25,4.30
2014,10,20,11,26,8.10
2014,10,20,11,27,3.90
2014,10,20,11,28,6.00
2014,10,20,11,29,7.40
2014,10,20,11,30,3.50
2014,10,20,11,31,0.40
2014,10,20,11,32,3.30
2014,10,20,11,33,4.60
2014,10,20,11,34,3.30
2014,10,20,11,35,0.70
2014,10,20,11,36,6.20
2014,10,20,11,37,6.40
2014,10,20,11,38,9.10
2014,10,20,11,39,8.80
2014,10,20,11,40,5.70
2014,10,20,11,41,8.80
2014,10,20,11,42,6.90
2014,10,20,11,43,10.60
2014,10,20,11,44,6.70
2014,10,20,11,45,6.80
2014,10,20,11,46,0.20
2014,10,20,11,47,3.00
2014,10,20,11,48,4.50
2014,10,20,11,49,4.00
2014,10,20,11,50,9.90
2014,10,20,11,51,9.30
2014,10,20,11,52,3.40
2014,10,20,11,53,9.00
2014,10,20,11,54,10.00
2014,10,20,11,55,4.20
2014,10,20,11,56,0.00
2014,10,20,11,57,0.50
2014,10,20,11,58,8.30
2014,10,20,11,59,10.10
2014,10,20,12,00,8.10
2014,10,20,12,01,7.30
2014,10,20,12,02,1.90
2014,10,20,12,03,8.60
2014,10,20,12,04,9.90
2014,10,20,12,05,7.90
2014,10,20,12,06,5.40
2014,10,20,12,07,1.50
2014,10,20,12,08,0.00
2014,10,20,12,09,0.00
2014,10,20,12,10,4.70
2014,10,20,12,11,1.40
2014,10,20,12,12,5.70
2014,10,20,12,13,7.00
2014,10,20,12,14,5.10
2014,10,20,12,15,5.50
2014,10,20,12,16,8.00
2014,10,20,12,17,5.40
2014,10,20,12,18,4.10
2014,10,20,12,19,6.20
2014,10,20,12,20,5.10
2014,10,20,12,21,6.20
2014,10,20,12,22,4.50
2014,10,20,12,23,0.70
2014,10,20,12,24,5.00
2014,10,20,12,25,5.30
2014,10,20,12,26,1.30
2014,10,20,12,27,0.20
2014,10,20,12,28,3.20
2014,10,20,12,29,2.10
2014,10,20,12,30,4.00
2014,10,20,12,31,0.20
2014,10,20,12,32,3.00
2014,10,20,12,33,2.80
2014,10,20,12,34,4.40
2014,10,20,12,35,0.80
2014,10,20,12,36,0.30
2014,10,20,12,37,4.60
2014,10,20,12,38,5.70
2014,10,20,12,39,5.30
2014,10,20,12,40,8.50
2014,10,20,12,41,8.60
2014,10,20,12,42,8.60
2014,10,20,12,43,7.30
2014,10,20,12,44,10.50
2014,10,20,12,45,10.00
2014,10,20,12,46,10.30
2014,10,20,12,47,9.60
2014,10,20,12,48,7.70
2014,10,20,12,49,7.30
2014,10,20,12,50,4.40
2014,10,20,12,51,7.70
2014,10,20,12,52,3.90
2014,10,20,12,53,5.30
2014,10,20,12,54,3.50
2014,10,20,12,55,3.60
2014,10,20,12,56,7.30
2014,10,20,12,57,8.20
2014,10,20,12,58,5.60
2014,10,20,12,59,8.90
2014,10,20,13,00,7.20
2014,10,20,13,01,7.60
2014,10,20,13,02,11.00
2014,10,20,13,03,11.80
2014,10,20,13,04,11.60
2014,10,20,13,05,8.20
2014,10,20,13,06,5.90
2014,10,20,13,07,6.00
2014,10,20,13,08,4.00
2014,10,20,13,09,0.10
2014,10,20,13,10,3.10
2014,10,20,13,11,3.60
2014,10,20,13,12,4.00
2014,10,20,13,13,9.10
2014,10,20,13,14,7.90
2014,10,20,13,15,6.70
2014,10,20,13,16,9.20
2014,10,20,13,17,7.20
2014,10,20,13,18,3.30
2014,10,20,13,19,6.50
2014,10,20,13,20,3.50
2014,10,20,13,21,0.00
2014,10,20,13,22,3.90
2014,10,20,13,23,6.90
2014,10,20,13,24,9.30
2014,10,20,13,25,8.50
2014,10,20,13,26,8.90
2014,10,20,13,27,4.20
2014,10,20,13,28,5.70
2014,10,20,13,29,2.60
2014,10,20,13,30,10.00
2014,10,20,13,31,7.90
2014,10,20,13,32,8.30
2014,10,20,13,33,7.70
2014,10,20,13,34,7.90
2014,10,20,13,35,9.60
2014,10,20,13,36,9.30
2014,10,20,13,37,8.70
2014,10,20,13,38,13.40
2014,10,20,13,39,9.90
2014,10,20,13,40,12.40
2014,10,20,13,41,9.60
2014,10,20,13,42,8.90
2014,10,20,13,43,9.00
2014,10,20,13,44,10.80
2014,10,20,13,45,9.30
2014,10,20,13,46,8.40
2014,10,20,13,47,7.50
2014,10,20,13,48,8.40
2014,10,20,13,49,7.20
2014,10,20,13,50,8.00
2014,10,20,13,51,6.80
2014,10,20,13,52,5.40
2014,10,20,13,53,6.90
2014,10,20,13,54,6.50
2014,10,20,13,55,8.40
2014,10,20,13,56,10.30
2014,10,20,13,57,11.50
2014,10,20,13,58,8.90
2014,10,20,13,59,7.60
2014,10,20,14,00,9.00
2014,10,20,14,01,8.50
2014,10,20,14,02,8.20
2014,10,20,14,03,11.00
2014,10,20,14,04,7.00
2014,10,20,14,05,3.30
2014,10,20,14,06,6.10
2014,10,20,14,07,8.40
2014,10,20,14,08,7.80
2014,10,20,14,09,5.40
2014,10,20,14,10,6.50
2014,10,20,14,11,5.10
2014,10,20,14,12,8.60
2014,10,20,14,13,6.80
2014,10,20,14,14,7.90
2014,10,20,14,15,12.20
2014,10,20,14,16,12.10
2014,10,20,14,17,7.80
2014,10,20,14,18,6.00
2014,10,20,14,19,11.10
2014,10,20,14,20,6.40
2014,10,20,14,21,7.00
2014,10,20,14,22,9.00
2014,10,20,14,23,6.40
2014,10,20,14,24,8.80
2014,10,20,14,25,7.80
2014,10,20,14,26,8.50
2014,10,20,14,27,8.00
2014,10,20,14,28,4.90
2014,10,20,14,29,6.00
2014,10,20,14,30,7.00
2014,10,20,14,31,6.80
2014,10,20,14,32,8.40
2014,10,20,14,33,6.30
2014,10,20,14,34,10.40
2014,10,20,14,35,8.80
2014,10,20,14,36,9.50
2014,10,20,14,37,8.70
2014,10,20,14,38,7.90
2014,10,20,14,39,8.10
2014,10,20,14,40,6.40
2014,10,20,14,41,3.90
2014,10,20,14,42,5.70
2014,10,20,14,43,3.10
2014,10,20,14,44,10.60
2014,10,20,14,45,7.90
2014,10,20,14,46,8.10
2014,10,20,14,47,8.10
2014,10,20,14,48,6.00
2014,10,20,14,49,5.50
2014,10,20,14,50,4.30
2014,10,20,14,51,5.80
2014,10,20,14,52,0.30
2014,10,20,14,53,8.80
2014,10,20,14,54,9.50
2014,10,20,14,55,9.00
2014,10,20,14,56,11.40
2014,10,20,14,57,8.60
2014,10,20,14,58,11.50
2014,10,20,14,59,10.10
2014,10,20,15,00,6.50
2014,10,20,15,01,9.50
2014,10,20,15,02,8.10
2014,10,20,15,03,9.00
2014,10,20,15,04,7.20
2014,10,20,15,05,10.50
2014,10,20,15,06,8.10
2014,10,20,15,07,5.60
2014,10,20,15,08,7.00
2014,10,20,15,09,4.50
2014,10,20,15,10,8.60
2014,10,20,15,11,10.90
2014,10,20,15,12,12.90
2014,10,20,15,13,16.90
2014,10,20,15,14,11.50
2014,10,20,15,15,6.30
2014,10,20,15,16,3.40
2014,10,20,15,17,8.10
2014,10,20,15,18,7.70
2014,10,20,15,19,6.70
2014,10,20,15,20,8.80
2014,10,20,15,21,8.30
2014,10,20,15,22,9.70
2014,10,20,15,23,6.30
2014,10,20,15,24,6.70
2014,10,20,15,25,6.00
2014,10,20,15,26,1.00
2014,10,20,15,27,1.10
2014,10,20,15,28,5.50
2014,10,20,15,29,6.70
2014,10,20,15,30,6.40
2014,10,20,15,31,4.50
2014,10,20,15,32,10.20
2014,10,20,15,33,8.70
2014,10,20,15,34,5.70
2014,10,20,15,35,5.40
2014,10,20,15,36,8.20
2014,10,20,15,37,10.70
2014,10,20,15,38,11.80
2014,10,20,15,39,9.50
2014,10,20,15,40,7.80
2014,10,20,15,41,7.50
2014,10,20,15,42,2.20
2014,10,20,15,43,10.50
2014,10,20,15,44,7.50
2014,10,20,15,45,6.70
2014,10,20,15,46,7.50
2014,10,20,15,47,5.60
2014,10,20,15,48,6.40
2014,10,20,15,49,5.70
2014,10,20,15,50,2.80
2014,10,20,15,51,6.40
2014,10,20,15,52,7.20
2014,10,20,15,53,5.20
2014,10,20,15,54,6.00
2014,10,20,15,55,2.70
2014,10,20,15,56,4.30
2014,10,20,15,57,1.00
2014,10,20,15,58,4.40
2014,10,20,15,59,7.60
2014,10,20,16,00,6.30
2014,10,20,16,01,6.90
2014,10,20,16,02,4.20
2014,10,20,16,03,0.30
2014,10,20,16,04,0.10
2014,10,20,16,05,4.20
2014,10,20,16,06,4.20
2014,10,20,16,07,3.30
2014,10,20,16,08,6.60
2014,10,20,16,09,7.20
2014,10,20,16,10,3.30
2014,10,20,16,11,4.40
2014,10,20,16,12,0.00
2014,10,20,16,13,0.00
2014,10,20,16,14,1.40
2014,10,20,16,15,5.20
2014,10,20,16,16,3.40
2014,10,20,16,17,4.70
2014,10,20,16,18,1.80
2014,10,20,16,19,6.00
2014,10,20,16,20,4.20
2014,10,20,16,21,1.40
2014,10,20,16,22,0.10
2014,10,20,16,23,2.70
2014,10,20,16,24,0.70
2014,10,20,16,25,3.80
2014,10,20,16,26,2.80
2014,10,20,16,27,4.10
2014,10,20,16,28,0.80
2014,10,20,16,29,4.40
2014,10,20,16,30,4.70
2014,10,20,16,31,3.30
2014,10,20,16,32,1.00
2014,10,20,16,33,0.50
2014,10,20,16,34,2.00
2014,10,20,16,35,3.40
2014,10,20,16,36,3.50
2014,10,20,16,37,4.70
2014,10,20,16,38,3.50
2014,10,20,16,39,3.50
2014,10,20,16,40,3.50
2014,10,20,16,41,7.10
2014,10,20,16,42,1.20
2014,10,20,16,43,5.80
2014,10,20,16,44,7.60
2014,10,20,16,45,5.80
2014,10,20,16,46,5.10
2014,10,20,16,47,5.20
2014,10,20,16,48,4.60
2014,10,20,16,49,0.90
2014,10,20,16,50,0.00
2014,10,20,16,51,1.60
2014,10,20,16,52,4.80
2014,10,20,16,53,5.30
2014,10,20,16,54,7.30
2014,10,20,16,55,8.90
2014,10,20,16,56,6.70
2014,10,20,16,57,7.10
2014,10,20,16,58,7.60
2014,10,20,16,59,6.90
2014,10,20,17,00,6.10
2014,10,20,17,01,4.30
2014,10,20,17,02,5.50
2014,10,20,17,03,4.20
2014,10,20,17,04,3.70
2014,10,20,17,05,3.80
2014,10,20,17,06,0.20
2014,10,20,17,07,1.00
2014,10,20,17,08,5.90
2014,10,20,17,09,6.20
2014,10,20,17,10,3.90
2014,10,20,17,11,1.20
2014,10,20,17,12,0.90
2014,10,20,17,13,2.70
2014,10,20,17,14,0.00
2014,10,20,17,15,0.20
2014,10,20,17,16,1.40
2014,10,20,17,17,3.90
2014,10,20,17,18,3.70
2014,10,20,17,19,3.40
2014,10,20,17,20,3.00
2014,10,20,17,21,0.00
2014,10,20,17,22,0.00
2014,10,20,17,23,0.00
2014,10,20,17,24,0.10
2014,10,20,17,25,0.00
2014,10,20,17,26,0.00
2014,10,20,17,27,0.20
2014,10,20,17,28,0.00
2014,10,20,17,29,0.10
2014,10,20,17,30,3.40
2014,10,20,17,31,3.00
2014,10,20,17,32,2.70
2014,10,20,17,33,2.70
2014,10,20,17,34,2.80
2014,10,20,17,35,0.40
2014,10,20,17,36,0.00
2014,10,20,17,37,1.40
2014,10,20,17,38,4.40
2014,10,20,17,39,0.60
2014,10,20,17,40,0.00
2014,10,20,17,41,1.50
2014,10,20,17,42,4.40
2014,10,20,17,43,3.50
2014,10,20,17,44,1.20
2014,10,20,17,45,2.60
2014,10,20,17,46,3.10
2014,10,20,17,47,0.10
2014,10,20,17,48,2.60
2014,10,20,17,49,0.30
2014,10,20,17,50,2.00
2014,10,20,17,51,3.10
2014,10,20,17,52,0.50
2014,10,20,17,53,3.00
2014,10,20,17,54,0.10
2014,10,20,17,55,0.20
2014,10,20,17,56,0.60
2014,10,20,17,57,0.80
2014,10,20,17,58,0.10
2014,10,20,17,59,1.40
2014,10,20,18,00,3.40
2014,10,20,18,01,2.20
2014,10,20,18,02,1.20
2014,10,20,18,03,0.00
2014,10,20,18,04,2.20
2014,10,20,18,05,4.20